Location: Kottag?dem
(16.8319°N, 80.6320°E)
Time: 21:59:18
(UTC+00:00)

N. Korean satellite - Visible Passes

Search period start: 08 August 2022 00:00
Search period end: 18 August 2022 00:00
Orbit: 433 x 471 km, 97.3° (Epoch: 07 August)

Date Brightness Start Highest point End Pass type
(mag) Time Alt. Az. Time Alt. Az. Time Alt. Az.
08 Aug 9.6 22:47:39 10° ENE 22:49:05 12° E 22:50:29 10° ESE visible
09 Aug 6.4 23:43:59 10° N 23:47:28 69° WNW 23:50:56 10° SSW visible
10 Aug 8.5 23:10:04 10° NE 23:13:08 28° E 23:16:11 10° SSE visible
12 Aug 6.6 23:33:32 10° NNE 23:37:02 76° E 23:40:30 10° S visible
13 Aug 9.2 23:00:01 10° NE 23:02:35 19° E 23:05:09 10° SE visible
15 Aug 7.5 23:22:58 10° NNE 23:26:21 47° E 23:29:42 10° S visible
16 Aug 9.6 22:50:06 10° ENE 22:51:48 13° E 22:53:29 10° SE visible
17 Aug 6.5 23:46:31 10° N 23:49:57 62° WNW 23:53:22 10° SSW visible
